Regional Weather Roundup
Issued by NWS

Home | Current Version | Previous Version | Text Only | Print | Product List | Glossary On
Versions: 1 2 3 4 5 6 7 8 9 10 11 12 13 14 15 16 17 18 19 20 21 22 23 24 25 26 27 28 29 30 31 32 33 34 35 36 37 38 39 40 41 42 43 44 45 46 47 48 49 50
000
ASUS43 KOAX 030210
RWRNE

WEATHER ROUNDUP FOR NEBRASKA
NATIONAL WEATHER SERVICE OMAHA NE
800 PM CST FRI DEC 02 2016

NOTES: SATELLITE DATA IS BEING USED TO AUGMENT CLOUD COVER ABOVE
       12000 FEET.
       "FAIR" INDICATES FEW OR NO CLOUDS BELOW 12,000 FEET WITH NO
       SIGNIFICANT WEATHER AND/OR OBSTRUCTIONS TO VISIBILITY.

  * THESE STATIONS DO NOT REPORT WEATHER SUCH AS RAIN...SNOW OR FOG.

NEZ001>004-019>022-054>056-030300-
NEBRASKA PANHANDLE

CITY           SKY/WX    TMP DP  RH WIND       PRES   REMARKS
SCOTTSBLUFF    CLEAR     22  14  71 CALM      30.20R
ALLIANCE       CLEAR     23  17  78 SW7       30.19S WCI  15
CHADRON        CLOUDY    27  18  69 S7        30.20S WCI  19
KIMBALL        CLOUDY    28  24  86 SW5       30.19S WCI  22
SIDNEY         CLOUDY    21  17  84 SW7       30.21R WCI  12
$$

NEZ057>060-069>072-079>082-030300-
SOUTHWEST NEBRASKA

CITY           SKY/WX    TMP DP  RH WIND       PRES   REMARKS
NORTH PLATTE   CLEAR     25  21  85 S3        30.25R
IMPERIAL       CLOUDY    31  23  72 CALM      30.25R
LEXINGTON      CLEAR     26  22  85 S3        30.27R
MCCOOK         MOCLDY    29  20  69 CALM      30.27R
OGALLALA       MOCLDY    25  20  80 W5        30.23R WCI  20
$$

NEZ005>010-023>029-035>040-094-030300-
NORTH CENTRAL NEBRASKA

CITY           SKY/WX    TMP DP  RH WIND       PRES   REMARKS
VALENTINE      CLEAR     24  20  84 CALM      30.24S
AINSWORTH      CLEAR     28  24  85 CALM      30.24F
BROKEN BOW     CLEAR     24  21  88 CALM      30.24S
O`NEILL        PTCLDY    29  26  88 SE3       30.27F
ORD            CLEAR     23  17  78 S3        30.26S
THEDFORD       CLEAR     26  19  74 CALM      30.23S
$$

NEZ041-046>049-061>064-073>077-083>087-030300-
SOUTH CENTRAL NEBRASKA

CITY           SKY/WX    TMP DP  RH WIND       PRES   REMARKS
GRAND ISLAND   CLEAR     27  23  85 S3        30.29S
AURORA         CLEAR     28  24  86 E5        30.30R WCI  23
HASTINGS       CLEAR     26  22  84 CALM      30.30R
HEBRON         PTCLDY    30  23  75 CALM      30.31S
HOLDREGE       CLEAR     26  21  80 CALM      30.27S
KEARNEY *      CLEAR     28  21  74 CALM      30.29R
YORK           PTCLDY    27  23  86 NE5       30.31R WCI  21
$$

NEZ011>018-030>034-042>045-030300-
NORTHEAST NEBRASKA

CITY           SKY/WX    TMP DP  RH WIND       PRES   REMARKS
NORFOLK        CLEAR     22  20  92 E3        30.30S
ALBION         CLEAR     25  22  87 CALM      30.29F
BLAIR          CLEAR     32  27  82 CALM      30.33R
FREMONT        CLEAR     29  25  88 CALM      30.33S
TEKAMAH        CLOUDY    36  27  69 NW8       30.34S WCI  30
WAYNE          PTCLDY    30  26  86 CALM      30.32S
$$

NEZ050>053-065>068-078-088>093-030300-
SOUTHEAST NEBRASKA

CITY           SKY/WX    TMP DP  RH WIND       PRES   REMARKS
LINCOLN        CLOUDY    26  23  88 NE6       30.34R WCI  19
OMAHA EPPLEY   CLOUDY    34  26  72 CALM      30.35R
BEATRICE       CLEAR     29  24  82 NE3       30.32R
FALLS CITY       N/A    N/A N/A N/A MISG      30.32S
NEBRASKA CITY  PTCLDY    33  27  78 NE3       30.33S
PLATTSMOUTH    PTCLDY    33  26  75 NE3       30.33S
$$

NEZ044-045-051>053-067-030300-
OMAHA AREA

CITY           SKY/WX    TMP DP  RH WIND       PRES   REMARKS
OMAHA EPPLEY   CLOUDY    34  26  72 CALM      30.35R
BLAIR          CLEAR     32  27  82 CALM      30.33R
FREMONT        CLEAR     29  25  88 CALM      30.33S
MILLARD        CLEAR     32  27  83 CALM      30.35R
OFFUTT AFB     CLEAR     27  26  99 CALM      30.34R
PLATTSMOUTH    PTCLDY    33  26  75 NE3       30.33S
WAHOO          FAIR      28  25  90 N3        30.34S
$$



USA.gov is the U.S. government's official web portal to all federal, state and local government web resources and services.